This is the latest recevied weather packets stored in our database for station/object WD4HMR. If no packets are shown the sender has not sent any weather packets the latest 10 day(s).
| Time | Temp. | Humidity | Pressure | Rain* | Wind** | Luminosity | Snow |
|---|---|---|---|---|---|---|---|
| 1777801803 | 6.67° C | 90% | 1019.4 hPa | 0 mm | - | 0 W/m² | - |
| 1777799404 | 7.78° C | 88% | 1019.6 hPa | 0 mm | - | 0 W/m² | - |
| 1777798504 | 7.78° C | 87% | 1019.7 hPa | 0 mm | - | 0 W/m² | - |
| 1777798204 | 7.78° C | 86% | 1019.7 hPa | 0 mm | - | 0 W/m² | - |
| 1777797904 | 7.78° C | 86% | 1019.7 hPa | 0 mm | - | 0 W/m² | - |
| 1777797604 | 7.78° C | 86% | 1019.7 hPa | 0 mm | - | 0 W/m² | - |
| 1777797304 | 8.33° C | 85% | 1019.7 hPa | 0 mm | - | 0 W/m² | - |
| 1777796104 | 8.33° C | 84% | 1019.7 hPa | 0 mm | - | 0 W/m² | - |
| 1777794903 | 9.44° C | 81% | 1019.6 hPa | 0 mm | - | 0 W/m² | - |
| 1777791904 | 10° C | 76% | 1019.5 hPa | 0 mm | - | 0 W/m² | - |
| 1777791604 | 10° C | 76% | 1019.5 hPa | 0 mm | - | 0 W/m² | - |
| 1777791304 | 10° C | 76% | 1019.5 hPa | 0 mm | - | 0 W/m² | - |
| 1777787703 | 11.67° C | 71% | 1019.5 hPa | 0 mm | - | 0 W/m² | - |
| 1777786804 | 11.11° C | 70% | 1019.4 hPa | 0 mm | - | 0 W/m² | - |
| 1777785904 | 11.67° C | 71% | 1019.3 hPa | 0 mm | - | 0 W/m² | - |
| 1777785303 | 11.67° C | 68% | 1019.2 hPa | 0 mm | - | 0 W/m² | - |
| 1777784103 | 11.67° C | 65% | 1019.1 hPa | 0 mm | - | 0 W/m² | - |
| 1777782904 | 10.56° C | 78% | 1018.6 hPa | 0 mm | - | 0 W/m² | - |
| 1777782604 | 10.56° C | 79% | 1018.6 hPa | 0 mm | - | 0 W/m² | - |
| 1777782304 | 10.56° C | 78% | 1018.6 hPa | 0 mm | - | 0 W/m² | - |
| 1777781704 | 10.56° C | 77% | 1018.6 hPa | 0 mm | - | 0 W/m² | - |
| 1777779604 | 11.11° C | 77% | 1018.4 hPa | 0 mm | - | 0 W/m² | - |
| 1777777204 | 11.67° C | 72% | 1018.4 hPa | 0 mm | - | 0 W/m² | - |
| 1777776604 | 11.67° C | 72% | 1018.3 hPa | 0 mm | - | 0 W/m² | - |
| 1777774204 | 12.78° C | 71% | 1018 hPa | 0 mm | - | 0 W/m² | - |
* Rain latest hour (hover to see other rain measurements)
** Current wind speed in m/s (hover to see current wind gust speed)